User: anonymous   Login
Location: Daybis Observatory
(33.4273°N, 88.8061°W)
Time: 02:09:43
(UTC-05:00)
Language:

Coronas F rocket - Orbit

View from above orbital plane
View from above orbital plane
View from above satellite
View from above satellite

Ground track
Ground track

The orbit data is extracted from the following two-line orbital elements,

1 26874U 01032B   16120.48626631  .00020028  00000-0  11373-3 0  9999
2 26874  82.4609 335.1356 0008064  38.4451 321.7389 15.78796637827950
Epoch (UTC): 29 April 2016 11:40:13
Eccentricity: 0.0008064
inclination: 82.4609°
perigee height: 328 km
apogee height: 339 km
right ascension of ascending node: 335.1356°
argument of perigee: 38.4451°
revolutions per day: 15.78796637
mean anomaly at epoch: 321.7389°
orbit number at epoch: 82795

The dashed part of the orbit path shows where the satellite is in the earth's shadow,  

DLR